Regional Weather Roundup
Issued by NWS

Home | Current Version | Previous Version | Graphics & Text | Print | Product List | Glossary On
Versions: 1 2 3 4 5 6 7 8 9 10 11 12 13 14 15 16 17 18 19 20 21 22 23 24 25 26 27 28 29 30 31 32 33 34 35 36 37 38 39 40 41 42 43 44 45 46 47 48 49 50
152
ASUS43 KLSX 120457
RWRMO

WEATHER SUMMARY FOR MISSOURI
NATIONAL WEATHER SERVICE SPRINGFIELD MO
1100 PM CST MON DEC 11 2017

NOTE: "FAIR" INDICATES FEW OR NO CLOUDS BELOW 12,000 FEET WITH NO
       SIGNIFICANT WEATHER AND/OR OBSTRUCTIONS TO VISIBILITY.
       CURRENT SKY AND/OR WEATHER CONDITIONS ARE NOT AVAILABLE FOR
       CHILLICOTHE AND FARMINGTON.

MOZ001>031-035>038-043-044-053-054-120600-
...NORTHERN AND WESTERN MISSOURI...

CITY           SKY/WX    TMP DP  RH WIND       PRES   REMARKS
KANSAS CTY INT PTCLDY    35  22  58 N25G31    30.24R WCI  23
LEE`S SUMMIT   CLEAR     37  26  64 N17G25    30.22R WCI  27
ST JOSEPH      PTCLDY    33  25  72 N16       30.29R WCI  23
CHILLICOTHE      N/A     32  21  64 NW5       30.22R WCI  27

$$
MOZ066>068-077>081-088>096-101>105-120600-
...SOUTHWEST MISSOURI...

CITY           SKY/WX    TMP DP  RH WIND       PRES   REMARKS
SPRINGFIELD    CLOUDY    45  31  58 N29G38    30.12R
JOPLIN         CLOUDY    45  33  63 N16G28    30.22R

$$
MOZ032>034-039>042-045>050-055>058-069>072-120600-
...CENTRAL MISSOURI...

CITY           SKY/WX    TMP DP  RH WIND       PRES   REMARKS
COLUMBIA       NOT AVBL
JEFFERSON CITY CLOUDY    43  31  62 NW16G33   30.12R
ROLLA          CLOUDY    44  31  60 NW18G31   30.06R
SEDALIA        CLOUDY    39  27  62 N22G30    30.19R WCI  29
WARRENSBURG    MOCLDY    36  25  64 NW24G31   30.22R WCI  24

$$
MOZ051-052-059>065-120600-
...EAST CENTRAL MISSOURI...

CITY           SKY/WX    TMP DP  RH WIND       PRES   REMARKS
ST LOUIS INTL  CLOUDY    42  34  73 NW22G35   30.02R

$$
MOZ072>076-082>087-097>100-106>115-120600-
...SOUTH CENTRAL AND SOUTHEAST MISSOURI...

CITY           SKY/WX    TMP DP  RH WIND       PRES   REMARKS
CAPE GIRARDEAU CLOUDY    47  31  53 NW8       29.98R
POPLAR BLUFF   CLOUDY    50  29  44 NW10      30.00R
WEST PLAINS    PTCLDY    44  28  53 NW6       30.05R

$$



USA.gov is the U.S. government's official web portal to all federal, state and local government web resources and services.